Погода в Дукстасе

Поиск расширенной информации на нашем сайте:

Полезная информация:

Новости сайта



02.01.2020
Опубликован Долгосрочный прогноз погоды по городам России и ближнего зарубежья на январь 2020 года.
Карты: Прогноз на январь и февраль 2020 года, Сравнение прогнозируемой аномалии приземной температуры воздуха на январь 2020 года по разным моделям.




Погода в Дукстасе - сегодня

Время (UTC), дата Ветер
(°,м/с) 
Видим.   Явления Облачность Т
(°С)
Тd
(°С)
f(%) Тe
(°С)
Pmin
(гПа)
dP
(гПа)
Po
(мм)
O2
(г/м3)
Тmin Tmax R s Состояние
почвы
06 05.03.21 280 (З) 3-6{09}  20000 м    4/4 300 м 
-4.1 -6.3 85 -6  1013.9  1.2  745  305  -6.4       
09 05.03.21 310 (СЗ) 5-11{12}  20000 м    1/0 
-2.1 -11.3 49 -5  1015.5  1.7  746  304         
12 05.03.21 320 (СЗ) 5-8{11}  20000 м    ясно 
-0.2 -14.6 33 -3  1016.4  1.1  747  302           
15 05.03.21 290 (З) 3-7{11}  20000 м    6/6 1500 м 
+0 -13 37 -2  1017  0.6  748  302           
18 05.03.21 тихо () -1{07}  20000 м    9/0 
-2.3 -9.9 56 -2  1018.3  1.1  748  305    +0.2       
21 05.03.21 280 (З) 2-4{07}  19000 м  слаб. ливневой снег  9/9 300 м 
-3 -6.2 79 -4  1019.3  0.9  749  306           
00 06.03.21 330 (СЗ) 3-5{07}  20000 м  в посл. час снег  9/9 300 м 
-5 -7.5 83 -7  1021.5  751  309      0.2   
03 06.03.21 290 (З) 2-3{05}  20000 м    ясно <0100 м 
-8.2 -9.5 90 -10  1022.6  0.8  751  313         
06 06.03.21 270 (З) 1-3{06}  20000 м    ясно <0100 м 
-6.8 -8 91 -6  1023.6  1.1  752  312  -8.2    0.2   
09 06.03.21 260 (З) 4-8{08}  20000 м    9/9 600 м 
-1.8 -9.1 57 -5  1023  -0.2  752  306         
12 06.03.21 230 (ЮЗ) 5-9{10}  20000 м    1/0 
+0.2 -10.4 45 -3  1020.9  -1.9  750  303           
15 06.03.21 230 (ЮЗ) 6-10{12}  20000 м    9/9 1000 м 
-0.1 -7.7 57 -4  1018  -2.9  748  302           
18 06.03.21 230 (ЮЗ) 6-11{12}  20000 м  в посл. час снег  9/0 
-0.2 -6 65 -4  1014.9  -3  746  301    +0.8  0.0   
21 06.03.21 240 (ЮЗ) 7-15{15}  20000 м    9/9 600 м 
+0.2 -6.8 59 -4  1010.2  -4.6  743  300         
00 07.03.21 230 (ЮЗ) 7-13{15}  15000 м  слаб. морось  10/10 300 м 
+0 -2.9 81 -4  1005.9  -4.2  739  298      0.0   
03 07.03.21 240 (ЮЗ) 7-12{14}  7000 м  слаб. ливневой снег  10/10 300 м 
+1 -1.4 84 -3  1000.9  -4.8  736  295         
06 07.03.21 310 (СЗ) 4-8{12}  1000 м  снег  10/0 
-1.7 -2.8 92 -4  1001.8  0.6  736  299  -1.9       
09 07.03.21 260 (З) 5-10{10}  20000 м  в посл. час снег  9/0 
-1.1 -3.7 82 -4  1001.8  0.1  736  298         
12 07.03.21 270 (З) 7-13{17}  19000 м    9/9 1000 м 
+0.3 -8 54 -4  1002.3  0.6  737  297       
15 07.03.21 280 (З) 6-10{16}  20000 м  в посл. час снег  4/0 
-0.3 -6.9 61 -4  1002.4  737  298         
18 07.03.21 270 (З) 4-8{11}  20000 м    8/8 1500 м 
-2.2 -9.1 59 -5  1003.6  1.1  738  300    +0.7   
21 07.03.21 270 (З) 4-9{10}  20000 м    9/9 1000 м 
-3.1 -9 64 -6  1003.9  0.2  738  302         
00 08.03.21 260 (З) 4-7{10}  5000 м  слаб. снег  10/10 300 м 
-3.5 -6.8 78 -6  1004.1  0.2  738  302      0.0   
03 08.03.21 320 (СЗ) 5-9{10}  1100 м  ливневой снег  10/0 
-4.9 -6.6 88 -9  1006.1  1.8  739  304      0.4   
06 08.03.21 320 (СЗ) 3-6{10}  20000 м  слаб. снег  9/0 
-5.8 -8.5 81 -8  1009.1  2.9  741  306  -6    0.4   
Время (UTC), дата Ветер
(°,м/с) 
Видим.   Явления Облачность Т
(°С)
Тd
(°С)
f(%) Тe
(°С)
Pmin
(гПа)
dP
(гПа)
Po
(мм)
O2
(г/м3)
Тmin Tmax R s Состояние
почвы

Для получения пояснительной информации подведите курсор к названию столбца.

ПОГОДА в Дукстасе - архив

Всё, что Вы хотите узнать о погоде в Дукстасе - удобно и подробно!

Выберите нужную дату (начиная с 1 января 2019* года) и нажмите кнопку "Найти".
Будут отображены архивные сводки погоды по пункту Дукстас, начиная с указанной даты.


Отображать данные в формате CSV (для использования в таблицах Excel)


Внимание! Наш архив погоды предназначен исключительно для личного некоммерческого использования в познавательных целях. Если Вам необходимы официальные справки о состоянии погоды (для производственных, юридических, коммерческих и т.п. целей), обращайтесь в органы Росгидромета.

*Примечание: данная дата относится к архиву по метеостанциям СССР (Россия, СНГ, Балтия).
Архив по метеостанциям Зарубежной Европы и Азии (кроме Китая) хранится 10 дней, по другим регионам земного шара (Китай, Африка, Америка, Австралия, Океания) - 1 день.

Дукстас - район местоположения метеостанции


Название, широта, долгота, высота метеостанции:
Дукстас 55.5°ш. 26.3°д. 168 м над ур. моря [Литва]

Дополнительная информация

В oтличие oт бoльшинства пoгoдных сайтoв мы публикуем пoдрoбную метеoинфoрмацию в детальнoм прoфессиoнальнoм фoрмате.

Характеристики температуры и влажнoсти вoздуха измеряются на высoте 2 м в тени вдали oт зданий и деревьев.
Скoрoсть ветра измеряется на высoте 10 м (на урoвне рoста челoвека скoрoсть ветра ниже в 1.5-2 раза). Если метеoстанция нахoдится в гoрoде или в лесу, тo скoрoсть ветра занижена на 2-4 м/с пo сравнению с oткрытым местoм. Скoрoсть ветра над акватoриями крупных рек и oзёр, а также на вершинах хoлмoв на 2-5 м/с выше, чем в oбычных услoвиях.
Атмoсфернoе давление в разных тoчках местнoсти мoжет значительнo oтличаться oт давления на метеoстанции, в зависимoсти oт услoвий рельефа (при пoдъёме на 10 м давление пoнижается примернo на 1 мм рт.ст.).